Location: Archemont
(49.1579°N, 1.7598°E)
Time: 09:26:57
(UTC+00:00)

deb Explorer IX - Pass Details

Date: 19 April 2024
Orbit: 513 x 891 km, 38.7° (Epoch: 23 May)

Event Time Altitude Azimuth Distance (km) Brightness Sun altitude
Rises 11:28:07 0° 223° (SW) 3,425 ? 52.0°
Reaches altitude 10° 11:31:09 10° 208° (SSW) 2,530 ? 52.0°
Maximum altitude 11:35:43 22° 160° (SSE) 1,838 ? 52.1°
Drops below altitude 10° 11:40:23 10° 111° (ESE) 2,576 ? 52.2°
Sets 11:43:29 0° 97° (E) 3,504 ? 52.2°
